STARLINK-33993, 63949

Orbit data source: Space-Track

STARLINK-33993, 63949 is a payload satellite owned by SpaceX/Seattle (US) in LEO that was launched on Tue, 13 May 2025 UTC via an FALCON 9 launch vehicle from the Air Force Western Test Range (AFWTR). Payload-class satellites include a variety of spacecraft equipped with specific instruments for various scientific and technological missions. These include communications satellites like Starlink; space stations such as the ISS; scientific satellites like the Hubble; Earth observation satellites from companies like Planet Labs, Umbra, and HawkEye 360; GPS; miniature CubeSats for education and research; and military/defense satellites.

Loading next visibility...
Identifier
63949, 2025-098Z
Orbit
LEO
Country
Flag of USUS
Related business
Manufacturer
SpaceX/Seattle
Mission
Operational Commercial Communications
Bus & Motor
STARLINK V2MO, Unknown motor
Mass
575 kg wet, ~530 kg dry
Launch date (UTC)
2025-05-13 (7 months ago)
Launch vehicle
FALCON 9
Launch site
Air Force Western Test Range (AFWTR)
Object type
Payload
Rocket body
Debris
Shape & HBR
Box + 2 Pan, 17.7 m
Radar Cross Section
36.964 m², Large (>1 m²)

Expand to show TLE details & history
Last TLE update: 19 hours ago

TLE from 19 hours ago
0 STARLINK-33993
1 63949U 25098Z   25348.82023585  .00003661  00000-0  31446-3 0  9997
2 63949  70.0006 128.2747 0003220 272.7714  87.3076 14.98327001 33848
Epoch: 2025-12-14T19:41Z
TLE epoch observation values (Epoch: 2025-12-14T19:41:08.377Z)
Latitude
-0.00007°
Longitude
109.2621°
Altitude
574.385 km
Speed
7.574 km/s
True Right ascension
08h 33m 05s
True Declination
0° 00' 00"
Sunlit
Object was in full shadow at epoch
Visualization orbit readout
Latitude
Unknown
Longitude
Unknown
Altitude
Unknown
Speed
Unknown
Apparent Right ascension
Unknown
Apparent Declination
Unknown
Sunlit
N/A
Visualization observer readout
Local Sidereal Time
13:19:01
Azimuth
Unknown
Elevation
Unknown
Doppler factor
Unknown
Orbital elements
Apogee altitude
572.251 km
Perigee altitude
567.776 km
Semi-major axis
6,948.15 km
Eccentricity
0.00032
Inclination
70.0006°
RAAN
128.2747°
Arg. of periapsis
272.7714°
True anomaly
87.34446°
Mean anomaly
87.3076°
Eccentric anomaly
87.32603°
Mean motion
3.74748 °/min
Orbital period
96.06 mins
BSTAR
0.00031446
Loading maneuver chart data...
Computing Atmospheric mass density...
Loading historical data...
Loading historical data...
Loading historical data...
Loading historical data...
Loading historical data...
Loading historical data...
Loading historical data...

Documentation

Showing up to 5 results
|